Torna al catalogo

STARLINK-2195

AttivoComunicazioniVLEO
NORAD 47772·PAYLOAD·🇺🇸 United States

Lanciato Mar 4, 2021 da Cape Canaveral Space Force Station

Loading…

Prossimi Passaggi (prossime 24 ore)

TLE

AggiornatoSource: CelesTrak SupGP

Epoca: Sep 15, 2026, 02:13 UTC

1 47772C 21017BC  26258.09284722 -.00031830  00000+0 -10235-2 0  2582
2 47772  53.1597  55.8648 0001224  71.0836 231.2261 15.31718945    11

Traccia STARLINK-2195 in tempo reale con AllMySat

Download on the App Store